Airfield :
LOGIN :

Register | Disclaimer

   EN    FR    IT 

 










Legend :    VFR   Marginal VFR   IFR   Intensive IFR   Very Intensive IFR
Visi :
Ceiling :
>= 8 km
>= 3000ft
5 to 8 km
1000 to 3000 ft
1500m to 5 km
500 to 1000 ft
800 to 1500m
200 to 500 ft
< 800m
< 200 ft
Symbols :   Thunderstorms  Fog  Heavy snow  Heavy precipitations  Wind > 20 kt
SIGMETs :     Misc.  Thunderstorms  Icing  Turbulence  Mountain Waves  Volcanic Ashes






- Airport Elevation : 1084 ft
- IATA code : EPL


LFSG - Épinal-Mirecourt

CURRENT METAR :
  • 182000Z AUTO 01002KT 9999 -RA OVC036/// ///TCU 07/06 Q1021

EXPIRED METARs :
  • 181930Z AUTO 36003KT 9999 OVC040/// ///TCU 07/06 Q1021
  • 181900Z AUTO 02006KT 9000 RA BKN038/// BKN045/// OVC056/// ///TCU 07/06 Q1021
  • 181830Z AUTO 01004KT 9999 -RA FEW037/// SCT046/// BKN056/// ///TCU 08/05 Q1020
  • 181800Z AUTO 36005KT 9999 ///TCU 08/05 Q1020
  • 181730Z AUTO 36007KT 9999 ///TCU 09/04 Q1020

TAF N/A



MET'MAP, your aeronautical weather chart ! - Copyright ORBIFLY December 2007 - Disclaimer

ORBIFLY MET'MAP TEAM :

Programming & Development : Alexandra Zaïnal
Concept & original design : Baudouin d'Aumeries
Assistance for programming : Marc-Olivier Méhu
Technical & hardware support : Manuel Goepfert

Contact : metmap@orbifly.com




SOURCES & CREDITS :

   NOAA